Camp Pendleton MCAS (Munn Field) Airport
KNFG : now visible

Airfield :











YOU CAN JOIN US ON...

 
LOGIN :

Register | Disclaimer

   EN    FR    IT 

 









Legend :    VFR   Marginal VFR   IFR   Intensive IFR   Very Intensive IFR
Visi :
Ceiling :
>= 8 km
>= 3000ft
5 to 8 km
1000 to 3000 ft
1500m to 5 km
500 to 1000 ft
800 to 1500m
200 to 500 ft
< 800m
< 200 ft
Symbols :   Thunderstorms  Fog  Heavy snow  Heavy precipitations  Wind > 20 kt






- Airport Elevation : 78 ft


KNFG - Camp Pendleton MCAS (Munn Field)

CURRENT METAR :
  • 172255Z 20010KT 10SM CLR 24/16 A2979 RMK AO2 SLP085 T02390156

EXPIRED METARs :
  • 172155Z 20011G15KT 10SM CLR 24/16 A2980 RMK AO2 SLP089 T02390161
  • 172055Z 22010KT 190V250 10SM CLR 24/16 A2981 RMK AO2 SLP094 T02390161 56004

TAF TAF KNFG
Valid from the 17 at 21:00 until the 18 at 21:00 UTC


1721/1821 21009KT 9999 SCT010 QNH2972INS
TEMPO 1721/1800 20012G18KT
BECMG 1802/1804 4800 BR OVC005 QNH2974INS
FM181830 22008KT 9999 FEW200 QNH2971INS T24/1721Z T17/1811Z
KZLA FIR / North America



MET'MAP, your aeronautical weather chart ! - Copyright ORBIFLY December 2007 - Disclaimer

ORBIFLY MET'MAP TEAM :

Programming & Development : Alexandra Zaïnal
Concept & original design : Baudouin d'Aumeries
Assistance for programming : Marc-Olivier Méhu
Technical & hardware support : Manuel Goepfert

Contact : metmap@orbifly.com




SOURCES & CREDITS :

   NOAA       Earth
Advisory